TIANWANG 1B (TW-1B)
1 40927U 15051C   19205.39636782  .00005906  00000-0  90674-4 0  9995
2 40927  97.1353 250.8309 0006384 246.4082 170.0340 15.54645925215566
TIANWANG 1A (TW-1A)
1 40928U 15051D   19205.34921983  .00001767  00000-0  44902-4 0  9995
2 40928  97.1433 235.8647 0009650 310.6157 182.4191 15.40921178214663
LAPAN A2
1 40931U 15052B   19202.51269834  .00000614  00000-0 -34879-5 0  9990
2 40931   6.0001 182.6065 0012573 262.3126  97.5538 14.76609943206121
LQSAT
1 40958U 15057A   19205.15707160 -.00000015  00000-0  53431-5 0  9996
2 40958  97.8967 273.3928 0019393 125.2207 235.0820 14.73084408204029
CHUBUSAT 2
1 41338U 16012B   19204.62398782  .00000203  00000-0  90836-5 0  9996
2 41338  31.0031 282.7726 0013715  88.8896 271.3311 15.00160341188160
CHUBUSAT 3
1 41339U 16012C   19205.25468875  .00000194  00000-0  83638-5 0  9999
2 41339  31.0116 276.8124 0013399 103.0697 257.1442 15.00335637188257
OUFTI-1
1 41458U 16025C   19204.67395157 +.00001095 +00000-0 +60066-4 0  9992
2 41458 098.1017 293.2972 0165247 239.2354 119.2512 15.05853165177833
E-STAR-2
1 41459U 16025D   19205.23041744  .00000453  00000-0  27825-4 0  9999
2 41459  98.1017 293.5239 0166462 238.4679 120.0206 15.05497466177898
AAUSAT 4
1 41460U 16025E   19205.29456701  .00000608  00000-0  34938-4 0  9995
2 41460  98.0960 294.9204 0156526 230.7559 127.9671 15.07390681178037
NUSAT 1
1 41557U 16033B   19205.42497783  .00000740  00000-0  30427-4 0  9997
2 41557  97.4180 292.7183 0014264 165.0825 195.0837 15.27262812175540
BEESAT 4
1 41619U 16040W   19205.38478884  .00000730  00000-0  33801-4 0  9998
2 41619  97.3652 266.9406 0009636 255.8049 104.2117 15.23181655159294
PRATHAM
1 41783U 16059A   19205.16401646  .00000013  00000-0  11904-4 0  9992
2 41783  98.0650 263.9587 0032179 272.5603  87.1915 14.63000497150731
ALSAT 1N
1 41789U 16059G   19205.39578591  .00000023  00000-0  13407-4 0  9998
2 41789  98.0673 266.2559 0027082 260.7997  99.0143 14.64250785150877
NAYIF 1
1 42017U 17008BX  19205.18285456  .00000838  00000-0  35813-4 0  9999
2 42017  97.4010 271.9090 0007515  54.6230 305.5709 15.25589056135333
MAX VALIER SAT
1 42778U 17036P   19204.70163504  .00000547  00000-0  26864-4 0  9993
2 42778  97.3519 261.5933 0014193 100.6447 259.6388 15.22053893115560
